JEREZ_(CIV/MIL) current weather conditions

sailwx.info

Wind at 1 knots

Air temperature 7.0° C
Visibility: greater than 5.4 NM
Dewpoint 2.0° C

Last reported at 2017-Jan-20 18:30 UTC.
Time now 2017-Jan-20 20:14 UTC

Location: N 36°45' W 006°04'.
View on Google Maps.

See reports from other nearby stations

  
Tides and Currents Weather Stations Pressure Air Temp Water Temp Dewpoint Dewpoint Depression Visibility Wind Speed Wind Dir Waves Ship Positions
date/time (UTC)wind fromknots sea level pressurealtimeterstation pressurevisibilityair tempwater tempwave heightnotes
2017-Jan-20 19:30 5.4 5.0
2017-Jan-20 19:00 5.4 6.0
2017-Jan-20 18:30 5.4 7.0
2017-Jan-20 18:00 5.4 8.0
2017-Jan-20 17:30 020 2 5.4 9.0
2017-Jan-20 17:00 360 2 5.410.0
2017-Jan-20 16:30 360 2 5.410.0
2017-Jan-20 16:00 340 4 5.410.0
2017-Jan-20 15:30 330 4 5.411.0
2017-Jan-20 15:00 300 5 5.410.0
2017-Jan-20 14:30 270 4 5.411.0
2017-Jan-20 14:00 320 2 5.411.0
2017-Jan-20 13:30 330 4 5.411.0
2017-Jan-20 13:00 310 4 5.410.0
2017-Jan-20 12:30 5.411.0
2017-Jan-20 12:00 5.411.0
2017-Jan-20 11:30 5.410.0
2017-Jan-20 11:00 5.4 9.0
2017-Jan-20 10:30 5.4 8.0
2017-Jan-20 10:00 5.4 8.0
2017-Jan-20 09:30 340 2 5.4 6.0
2017-Jan-20 09:00 5.4 5.0
2017-Jan-20 08:30 5.4 4.0
2017-Jan-20 08:00 5.4 3.0
2017-Jan-20 07:30 5.4 2.0
2017-Jan-20 07:00 5.4 2.0
2017-Jan-20 06:30 350 5 5.4 2.0
2017-Jan-20 06:00 350 2 5.4 2.0
2017-Jan-20 05:30 350 2 5.4 3.0
2017-Jan-20 05:00 5.4 4.0
2017-Jan-20 04:30 310 2 5.4 4.0
2017-Jan-20 04:00 5.4 4.0
2017-Jan-20 03:30 5.4 4.0
2017-Jan-20 03:00 5.4 4.0
2017-Jan-20 02:30 360 5 5.4 4.0
2017-Jan-20 02:00 350 6 5.4 4.0
2017-Jan-20 01:30 360 6 5.4 4.0
2017-Jan-20 01:00 360 6 5.4 4.0
2017-Jan-20 00:30 330 7 5.4 4.0
2017-Jan-20 00:00 320 7 5.4 4.0
2017-Jan-19 23:30 320 9 5.4 5.0
2017-Jan-19 23:00 310 7 5.4 5.0
2017-Jan-19 22:30 5.4 4.0
2017-Jan-19 22:00 300 2 5.4 4.0
2017-Jan-19 21:30 5.4 5.0
2017-Jan-19 21:00 290 2 5.4 5.0
2017-Jan-19 20:30 5.4 5.0
2017-Jan-19 20:00 5.4 6.0
2017-Jan-19 19:30 5.4 6.0
2017-Jan-19 19:00 050 6 5.4 7.0
2017-Jan-19 18:30 040 6 5.4 8.0
2017-Jan-19 18:00 360 4 5.4 7.0
2017-Jan-19 17:30 350 6 5.4 8.0
2017-Jan-19 17:00 010 6 5.4 8.0
2017-Jan-19 16:30 010 7 5.4 8.0
2017-Jan-19 16:00 010 6 5.4 8.0
2017-Jan-19 15:30 040 7 5.4 8.0
2017-Jan-19 15:00 020 13 5.4 8.0
2017-Jan-19 14:30 020 9 5.4 8.0
2017-Jan-19 14:00 030 12 5.4 7.0
2017-Jan-19 13:30 030 11 5.4 7.0
2017-Jan-19 13:00 020 13 5.4 7.0
2017-Jan-19 12:30 020 14 5.4 6.0
2017-Jan-19 12:00 030 17 5.4 7.0
2017-Jan-19 11:30 020 17 5.4 6.0
2017-Jan-19 11:00 020 13 5.4 6.0
2017-Jan-19 10:30 010 12 5.4 5.0
2017-Jan-19 10:00 360 8 5.4 4.0
2017-Jan-19 09:30 360 8 5.4 4.0
2017-Jan-19 09:00 010 6 5.4 3.0
2017-Jan-19 08:30 020 6 5.4 3.0
2017-Jan-19 08:00 020 7 5.4 2.0
2017-Jan-19 07:30 020 11 5.4 3.0
2017-Jan-19 07:00 040 12 5.4 3.0
2017-Jan-19 06:30 030 7 5.4 3.0
2017-Jan-19 06:00 050 7 5.4 3.0
2017-Jan-19 05:30 060 7 5.4 2.0
2017-Jan-19 05:00 060 6 5.4 1.0
2017-Jan-19 04:30 360 4 5.4-2.0
2017-Jan-19 04:00 5.4-2.0
2017-Jan-19 03:30 030 2 5.4-2.0
2017-Jan-19 03:00 050 2 5.4-1.0
2017-Jan-19 02:30 5.4-2.0
2017-Jan-19 02:00 330 4 5.4-0.0
2017-Jan-19 01:30 350 6 5.4-1.0
2017-Jan-19 01:00 5.4-0.0
2017-Jan-19 00:30 010 5 5.4 1.0
2017-Jan-19 00:00 350 7 5.4-0.0
2017-Jan-18 23:30 5.4-0.0
2017-Jan-18 23:00 5.4 1.0
2017-Jan-18 22:30 020 5 5.4 1.0
2017-Jan-18 22:00 350 5 5.4 2.0
2017-Jan-18 21:30 5.4 1.0
2017-Jan-18 21:00 360 4 5.4 2.0
2017-Jan-18 20:30 5.4 2.0
2017-Jan-18 20:00 010 8 5.4 3.0